LATEST WEATHER OBSERVATIONS RECORDED AT FUA'AMOTU AIRPORT
DATE TIME CLOUD WIND KT TEMP
(C)
DewPoint
(C)
RH(%) WEATHER MSL PRESS.
(MB)
25.09.2017 06:00AM CLOUDY CALM 0 18 16.9 89 NIL 1018.6
25.09.2017 05:00AM CLOUDY CALM 0 18 16.9 89 NIL 1017.9
25.09.2017 04:00AM CLOUDY CALM 0 17 16.9 89 NIL 1017.6
25.09.2017 03:00AM CLOUDY CALM 0 18 17 89 NIL 1017.5
25.09.2017 02:00AM CLOUDY CALM 0 19 18 89 RECENT RAIN 1018.3
25.09.2017 12:00AM OVERCAST CALM 0 19 18 89 NIL 1018
24.09.2017 11:00PM OVERCAST CALM 0 19 19 89 NIL 1018
24.09.2017 10:00PM OVERCAST CALM 0 19 19 89 NIL 1018
24.09.2017 09:00PM OVERCAST CALM 0 19 19 89 NIL 1019
24.09.2017 08:00PM OVERCAST CALM 0 20 19 89 LIGHT SHOWER 1018
24.09.2017 07:00PM OVERCAST CALM 0 20 19 89 LIGHT SHOWER 1018
24.09.2017 06:00PM OVERCAST CALM 0 21 20 89 LIGHT SHOWER 1018
24.09.2017 05:00PM OVERCAST CALM 0 21 20 89 LIGHT SHOWER 1017
24.09.2017 04:00PM OVERCAST CALM 0 22 20 89 LIGHT SHOWER 1017.2
24.09.2017 03:00PM CLOUDY CALM 0 23 19 89 LIGHT SHOWER 1017
24.09.2017 01:00PM OVERCAST CALM 0 23 19 89 NIL 1018.7
24.09.2017 12:00PM OVERCAST CALM 0 23 18 89 NIL 1019.2
24.09.2017 11:00AM OVERCAST CALM 0 22 19 89 RECENT SHOWER 1019.1
24.09.2017 10:00AM OVERCAST CALM 0 22 17 89 LIGHT SHOWER 1018.9
24.09.2017 09:00AM OVERCAST CALM 0 22 17 89 NIL 1018.5
24.09.2017 08:00AM OVERCAST CALM 0 20 18 89 NIL 1018.1
24.09.2017 07:00AM CLOUDY CALM 0 18.5 17.4 89 NIL 1016
24.09.2017 06:00AM CLOUDY CALM 0 18.5 16 85 NIL 1016
24.09.2017 05:00AM PARTLY CLOUDY CALM 0 17.5 16.7 95 NIL 1017